Location: NCO
(38.4404°N, 77.1340°W)
Time: 12:05:54
(UTC-04:00)

Tiangong 2 - Visible Passes

Search period start: 24 March 2017 00:00
Search period end: 03 April 2017 00:00
Orbit: 374 x 384 km, 42.8° (Epoch: 22 March)

Date Brightness Start Highest point End Pass type
(mag) Time Alt. Az. Time Alt. Az. Time Alt. Az.
24 Mar 4.7 04:27:08 10° ENE 04:27:08 10° ENE 04:27:11 10° ENE visible
24 Mar 1.4 05:59:14 20° WNW 06:01:12 63° NNE 06:04:18 10° E visible
25 Mar 3.0 05:00:50 30° ENE 05:00:50 30° ENE 05:02:47 10° E visible
25 Mar 1.4 06:33:23 10° WNW 06:36:25 47° SSW 06:39:26 10° SE visible
26 Mar 0.9 05:34:40 63° WNW 05:35:06 86° SSW 05:38:14 10° ESE visible
27 Mar 4.3 04:36:30 12° E 04:36:30 12° E 04:36:47 10° E visible
27 Mar 2.1 06:08:38 18° WSW 06:10:11 27° SSW 06:12:55 10° SSE visible
28 Mar 3.0 05:10:37 22° SE 05:10:37 22° SE 05:11:57 10° SE visible
29 Mar 3.2 05:44:57 14° S 05:44:57 14° S 05:45:55 10° S visible
01 Apr 3.0 20:46:00 10° SSW 20:47:13 16° S 20:47:13 16° S visible
02 Apr 2.7 21:20:08 10° SW 21:21:42 26° SW 21:21:42 26° SW visible
